THOR ABLESTAR DEB, 645

Orbit data source: Space-Track

THOR ABLESTAR DEB, 645 is space debris in LEO originally from a launch on Thu, 29 Jun 1961 UTC launched from the Air Force Eastern Test Range (AFETR). Debris objects in space refer to the collection of defunct objects orbiting the Earth. Examples of debris include non-operational satellites, rocket bodies, and fragments generated from explosions, collisions, or faulty payload assembly.

Loading next visibility...
Identifier
645, 1961-015GW
Orbit
LEO
Country
Flag of USUS
Related business
Manufacturer
Unknown
Mission
Spacecraft
Bus & Motor
Unknown
Mass
Unknown
Launch date (UTC)
1961-06-29 (65 years ago)
Launch vehicle
Unknown
Launch site
Air Force Eastern Test Range (AFETR)
Object type
Payload
Rocket body
Debris
Shape & HBR
Unknown shape, 0.1 m
Radar Cross Section
Medium (>0.1 m² and <1 m²)

Expand to show TLE details & history
Last TLE update: 8 hours ago

TLE from 8 hours ago
0 THOR ABLESTAR DEB
1 00645U 61015GW  26174.87315834  .00000112  00000-0  36308-3 0  9994
2 00645  66.5837 209.4489 0404956 127.5718  49.7044 13.04909758 80683
Epoch: 2026-06-23T20:57Z
TLE epoch observation values (Epoch: 2026-06-23T20:57:20.880Z)
Latitude
-0.95715°
Longitude
163.48583°
Altitude
1,052.962 km
Speed
7.417 km/s
True Right ascension
01h 59m 26s
True Declination
0° 57' 06"
Sunlit
Object was in daylight at epoch
Visualization orbit readout
Latitude
Unknown
Longitude
Unknown
Altitude
Unknown
Speed
Unknown
Apparent Right ascension
Unknown
Apparent Declination
Unknown
Sunlit
N/A
Visualization observer readout
Local Sidereal Time
15:55:16
Azimuth
Unknown
Elevation
Unknown
Doppler factor
Unknown
Orbital elements
Apogee altitude
1,549.952 km
Perigee altitude
932.837 km
Semi-major axis
7,619.532 km
Eccentricity
0.0405
Inclination
66.5837°
RAAN
209.4489°
Arg. of periapsis
127.5718°
True anomaly
53.36089°
Mean anomaly
49.7044°
Eccentric anomaly
51.52075°
Mean motion
3.26325 °/min
Orbital period
110.32 mins
BSTAR
0.00036308

Documentation

Showing up to 5 results
|